FW5274 Weather Reports


Display with metric or nautical units.
time (UTC)temp
F
wind
direction
speed
MPH
gust
MPH
rain 1hr
in
rain 24hr
in
rain mn
in
humidity
%
barometer
mb
20260903234530 59 338 6.0 14.0 0.00 0.03 0.01 59 1012.7
20260903233107 61 34 3.0 11.0 0.00 0.03 0.01 54 1012.9
20260903231531 62 177 1.0 6.0 0.00 0.03 0.01 50 1012.9
20260903230240 0 0 0.0 0.0 0.00 0.03 0.01 100
20260903224534 64 167 6.0 13.0 0.00 0.03 0.01 49 1012.9
20260903223033 63 172 6.0 13.0 0.00 0.03 0.01 50 1013.0
20260903221531 64 195 5.0 12.0 0.00 0.03 0.01 50 1013.1
20260903220033 61 187 5.0 13.0 0.00 0.03 0.01 54 1013.3
20260903214531 61 190 5.0 12.0 0.00 0.03 0.01 53 1013.5
20260903213035 62 179 6.0 12.0 0.00 0.03 0.01 51 1013.6
20260903211606 63 192 6.0 13.0 0.00 0.03 0.01 52 1013.4
20260903210105 62 197 5.0 11.0 0.00 0.03 0.01 52 1013.5
20260903204606 62 197 7.0 13.0 0.00 0.03 0.01 51 1013.7
20260903203035 63 213 8.0 19.0 0.00 0.03 0.01 50 1013.7
20260903201650 64 209 8.0 18.0 0.00 0.04 0.01 50 1013.8
20260903200035 64 224 9.0 17.0 0.00 0.04 0.01 52 1014.0
20260903194605 62 220 8.0 17.0 0.00 0.04 0.01 56 1014.2
20260903193032 59 214 8.0 16.0 0.00 0.04 0.01 59 1014.5
20260903191604 59 197 9.0 19.0 0.00 0.04 0.01 60 1014.6
20260903190107 59 206 9.0 16.0 0.00 0.04 0.01 62 1014.8
20260903183031 56 210 7.0 14.0 0.00 0.04 0.01 66 1014.9
20260903180037 56 216 7.0 14.0 0.00 0.04 0.01 66 1014.8
20260903174534 55 222 8.0 18.0 0.00 0.04 0.01 67 1014.6
20260903173036 55 223 7.0 13.0 0.00 0.04 0.01 70 1014.7
20260903171530 55 210 5.0 11.0 0.00 0.04 0.01 71 1014.7
20260903170031 54 209 5.0 9.0 0.00 0.04 0.01 73 1014.8
20260903164646 54 221 6.0 13.0 0.00 0.04 0.01 73 1014.9
20260903163100 53 224 7.0 11.0 0.00 0.04 0.01 73 1014.8
20260903161536 53 223 9.0 19.0 0.00 0.04 0.01 73 1014.8
20260903160106 53 224 10.0 18.0 0.00 0.04 0.01 75 1014.7
20260903154530 52 218 8.0 15.0 0.00 0.04 0.01 77 1014.7
20260903153031 51 218 8.0 14.0 0.00 0.04 0.01 79 1014.7
20260903151534 50 213 7.0 14.0 0.00 0.04 0.01 80 1014.7
20260903150120 50 195 5.0 10.0 0.00 0.04 0.01 80 1014.8
20260903144531 50 206 5.0 9.0 0.00 0.04 0.01 80 1014.8
20260903143149 49 226 6.0 11.0 0.00 0.04 0.01 81 1014.7
20260903141605 48 230 6.0 12.0 0.00 0.04 0.01 82 1014.6
20260903134535 48 238 7.0 13.0 0.00 0.04 0.01 83 1014.4
20260903133031 48 236 6.0 13.0 0.00 0.04 0.01 83 1014.5
20260903131535 48 234 6.0 11.0 0.00 0.04 0.01 83 1014.3
20260903130035 47 233 6.0 11.0 0.00 0.04 0.01 83 1014.4
20260903124530 48 303 2.0 9.0 0.00 0.04 0.01 82 1014.3
20260903123148 48 236 6.0 13.0 0.00 0.04 0.01 82 1014.2
20260903121530 49 236 8.0 14.0 0.00 0.04 0.01 81 1014.1
20260903113031 45 243 7.0 13.0 0.00 0.04 0.01 86 1014.1
20260903111607 45 260 6.0 10.0 0.00 0.04 0.01 86 1014.1
20260903110105 45 248 5.0 10.0 0.00 0.04 0.01 85 1013.9
20260903104534 46 254 5.0 11.0 0.00 0.04 0.01 85 1013.9
20260903101529 47 226 7.0 12.0 0.00 0.04 0.01 85 1013.8
20260903100035 47 243 6.0 13.0 0.00 0.04 0.01 85 1013.7
20260903093031 47 229 10.0 16.0 0.00 0.04 0.01 87 1013.3
20260903091645 47 224 9.0 17.0 0.01 0.04 0.01 88 1013.5
20260903084533 46 221 9.0 15.0 0.01 0.04 0.01 92 1013.3
20260903083033 45 231 6.0 13.0 0.01 0.04 0.00 94 1013.4
20260903081532 46 252 4.0 11.0 0.00 0.03 0.00 95 1013.6
20260903080035 47 230 5.0 9.0 0.00 0.03 0.00 95 1013.7
20260903071530 47 345 2.0 4.0 0.00 0.03 0.00 95 1013.2
20260903063106 48 168 2.0 4.0 0.00 0.03 0.03 94 1013.1
20260903061611 48 140 0.0 4.0 0.00 0.03 0.03 94 1013.2
20260903060035 49 138 1.0 6.0 0.00 0.03 0.03 94 1013.2
20260903054609 49 118 2.0 5.0 0.00 0.03 0.03 93 1013.3
20260903053034 49 105 2.0 5.0 0.00 0.03 0.03 93 1013.4
20260903051537 49 90 1.0 3.0 0.00 0.03 0.03 92 1013.3
20260903050032 50 90 1.0 4.0 0.00 0.03 0.03 92 1013.0
20260903044532 51 90 3.0 5.0 0.00 0.03 0.03 91 1012.8
20260903043030 51 93 1.0 4.0 0.00 0.03 0.03 91 1012.8
20260903041544 51 90 0.0 2.0 0.01 0.03 0.03 90 1012.8
20260903040109 51 25 2.0 4.0 0.01 0.03 0.03 88 1012.4
20260903034531 52 306 3.0 5.0 0.01 0.03 0.03 87 1012.1
20260903033032 53 283 4.0 9.0 0.01 0.03 0.02 85 1012.2
20260903031537 55 312 7.0 14.0 0.00 0.02 0.02 85 1012.0
20260903030036 56 269 6.0 12.0 0.00 0.02 0.02 87 1011.7
20260903024532 56 219 6.0 14.0 0.00 0.02 0.02 87 1011.4
20260903023034 56 221 7.0 14.0 0.00 0.02 0.02 88 1011.4
20260903021529 56 222 5.0 13.0 0.00 0.02 0.02 88 1011.2
20260903020030 56 209 7.0 14.0 0.00 0.02 0.02 88 1011.1
20260903014530 55 202 7.0 12.0 0.01 0.02 0.02 89 1011.1
20260903013032 55 211 7.0 12.0 0.01 0.02 0.02 89 1011.3
20260903011605 55 218 6.0 11.0 0.01 0.02 0.02 88 1011.4
20260903010032 56 222 6.0 11.0 0.01 0.02 0.01 86 1011.6
20260903004536 56 215 8.0 14.0 0.00 0.01 0.01 85 1011.5
20260903003034 57 217 7.0 16.0 0.00 0.01 0.01 85 1011.5
20260903000150 56 214 8.0 15.0 0.00 0.01 0.01 84 1011.6